Time,TemperatureF,DewpointF,PressureIn,WindDirection,WindDirectionDegrees,WindSpeedMPH,WindSpeedGustMPH,Humidity,HourlyPrecipIn,Conditions,Clouds,dailyrainin,SoftwareType,DateUTC
2013-08-09 00:00:00,59.5,50.9,28.91,NNW,345,0.0,0.0,73,0.00,,,0.00,Weather View 32 v70,2013-08-09 04:00:00,
2013-08-09 00:06:00,59.5,50.9,28.91,NNW,345,0.0,0.0,73,0.00,,,0.00,Weather View 32 v70,2013-08-09 04:06:00,
2013-08-09 00:10:00,59.5,50.9,28.91,NNW,345,0.0,0.0,73,0.00,,,0.00,Weather View 32 v70,2013-08-09 04:10:00,
2013-08-09 00:20:00,59.5,50.9,28.91,NNW,345,0.0,0.0,73,0.00,,,0.00,Weather View 32 v70,2013-08-09 04:20:00,
2013-08-09 00:30:00,59.4,51.1,28.91,NNW,345,0.0,0.0,74,0.00,,,0.00,Weather View 32 v70,2013-08-09 04:30:00,
2013-08-09 00:40:00,59.5,51.6,28.91,NNW,345,0.0,0.0,75,0.00,,,0.00,Weather View 32 v70,2013-08-09 04:40:00,
2013-08-09 00:50:00,59.5,51.6,28.91,NNW,345,0.0,0.0,75,0.00,,,0.00,Weather View 32 v70,2013-08-09 04:50:00,
2013-08-09 01:00:00,59.5,51.9,28.91,NNW,345,0.0,0.0,76,0.00,,,0.00,Weather View 32 v70,2013-08-09 05:00:00,
2013-08-09 01:09:00,59.5,51.9,28.91,NNW,345,0.0,0.0,76,0.00,,,0.00,Weather View 32 v70,2013-08-09 05:09:00,
2013-08-09 01:20:00,60.1,52.1,28.91,NNW,345,0.0,0.0,75,0.00,,,0.00,Weather View 32 v70,2013-08-09 05:20:00,
2013-08-09 01:30:00,60.1,52.1,28.91,NNW,345,0.0,0.0,75,0.00,,,0.00,Weather View 32 v70,2013-08-09 05:30:00,
2013-08-09 01:40:00,59.9,51.6,28.91,NNW,345,0.0,0.0,74,0.00,,,0.00,Weather View 32 v70,2013-08-09 05:40:00,
2013-08-09 01:50:00,59.9,51.6,28.91,NNW,345,0.0,0.0,74,0.00,,,0.00,Weather View 32 v70,2013-08-09 05:50:00,
2013-08-09 02:00:00,59.7,51.8,28.91,NNW,345,0.0,0.0,75,0.00,,,0.00,Weather View 32 v70,2013-08-09 06:00:00,
2013-08-09 02:10:00,59.7,51.8,28.91,NNW,345,0.0,0.0,75,0.00,,,0.00,Weather View 32 v70,2013-08-09 06:10:00,
2013-08-09 02:20:00,59.5,51.9,28.91,NNW,345,0.0,0.0,76,0.00,,,0.00,Weather View 32 v70,2013-08-09 06:20:00,
2013-08-09 02:30:00,59.5,52.3,28.91,NNW,345,0.0,0.0,77,0.00,,,0.00,Weather View 32 v70,2013-08-09 06:30:00,
2013-08-09 02:40:00,59.4,52.1,28.91,NNW,345,0.0,0.0,77,0.00,,,0.00,Weather View 32 v70,2013-08-09 06:40:00,
2013-08-09 02:50:00,59.0,51.8,28.91,NNW,345,0.0,0.0,77,0.00,,,0.00,Weather View 32 v70,2013-08-09 06:50:00,
2013-08-09 03:00:00,59.0,51.8,28.91,NNW,345,0.0,0.0,77,0.00,,,0.00,Weather View 32 v70,2013-08-09 07:00:00,
2013-08-09 03:11:00,58.8,52.0,28.91,NNW,345,0.0,0.0,78,0.00,,,0.00,Weather View 32 v70,2013-08-09 07:11:00,
2013-08-09 03:20:00,58.6,51.8,28.91,NNW,345,0.0,0.0,78,0.00,,,0.00,Weather View 32 v70,2013-08-09 07:20:00,
2013-08-09 03:30:00,58.5,52.0,28.91,NNW,345,0.0,0.0,79,0.00,,,0.00,Weather View 32 v70,2013-08-09 07:30:00,
2013-08-09 03:40:00,58.6,52.1,28.91,NNW,345,0.0,0.0,79,0.00,,,0.00,Weather View 32 v70,2013-08-09 07:40:00,
2013-08-09 03:50:00,58.8,52.3,28.91,NNW,345,0.0,0.0,79,0.00,,,0.00,Weather View 32 v70,2013-08-09 07:50:00,
2013-08-09 04:00:00,58.8,52.6,28.91,NNW,345,0.0,0.0,80,0.00,,,0.00,Weather View 32 v70,2013-08-09 08:00:00,
2013-08-09 04:10:00,58.8,52.6,28.88,NNW,345,0.0,0.0,80,0.00,,,0.00,Weather View 32 v70,2013-08-09 08:10:00,
2013-08-09 04:20:00,58.5,52.3,28.88,NNW,345,0.0,0.0,80,0.00,,,0.00,Weather View 32 v70,2013-08-09 08:20:00,
2013-08-09 04:30:00,58.1,51.9,28.88,NNW,345,0.0,0.0,80,0.00,,,0.00,Weather View 32 v70,2013-08-09 08:30:00,
2013-08-09 04:40:00,57.9,52.1,28.88,NNW,345,0.0,0.0,81,0.00,,,0.00,Weather View 32 v70,2013-08-09 08:40:00,
2013-08-09 04:50:00,57.7,51.9,28.88,NNW,345,0.0,0.0,81,0.00,,,0.00,Weather View 32 v70,2013-08-09 08:50:00,
2013-08-09 05:00:00,57.6,52.1,28.88,NNW,345,0.0,0.0,82,0.00,,,0.00,Weather View 32 v70,2013-08-09 09:00:00,
2013-08-09 05:10:00,57.2,51.4,28.91,NNW,345,0.0,0.0,81,0.00,,,0.00,Weather View 32 v70,2013-08-09 09:10:00,
2013-08-09 05:20:00,56.8,51.4,28.91,NNW,345,0.0,0.0,82,0.00,,,0.00,Weather View 32 v70,2013-08-09 09:20:00,
2013-08-09 05:30:00,56.7,51.2,28.91,NNW,345,0.0,0.0,82,0.00,,,0.00,Weather View 32 v70,2013-08-09 09:30:00,
2013-08-09 05:40:00,56.3,50.9,28.91,NNW,345,0.0,0.0,82,0.00,,,0.00,Weather View 32 v70,2013-08-09 09:40:00,
2013-08-09 05:50:00,56.1,51.0,28.91,NNW,345,0.0,0.0,83,0.00,,,0.00,Weather View 32 v70,2013-08-09 09:50:00,
2013-08-09 06:00:00,55.9,50.8,28.91,NNW,345,0.0,0.0,83,0.00,,,0.00,Weather View 32 v70,2013-08-09 10:00:00,
2013-08-09 06:10:00,55.8,50.7,28.91,NNW,345,0.0,0.0,83,0.00,,,0.00,Weather View 32 v70,2013-08-09 10:10:00,
2013-08-09 06:20:00,55.2,50.1,28.91,NNW,345,0.0,0.0,83,0.00,,,0.00,Weather View 32 v70,2013-08-09 10:20:00,
2013-08-09 06:30:00,55.4,50.3,28.91,NNW,345,0.0,0.0,83,0.00,,,0.00,Weather View 32 v70,2013-08-09 10:30:00,
2013-08-09 06:40:00,55.4,50.3,28.91,NNW,345,0.0,0.0,83,0.00,,,0.00,Weather View 32 v70,2013-08-09 10:40:00,
2013-08-09 06:50:00,55.0,50.0,28.91,NNW,345,0.0,0.0,83,0.00,,,0.00,Weather View 32 v70,2013-08-09 10:50:00,
2013-08-09 07:00:00,54.9,49.8,28.91,NNW,345,0.0,0.0,83,0.00,,,0.00,Weather View 32 v70,2013-08-09 11:00:00,
2013-08-09 07:10:00,54.9,50.1,28.91,NNW,345,0.0,0.0,84,0.00,,,0.00,Weather View 32 v70,2013-08-09 11:10:00,
2013-08-09 07:19:00,55.0,50.3,28.91,NNW,345,0.0,0.0,84,0.00,,,0.00,Weather View 32 v70,2013-08-09 11:19:00,
2013-08-09 07:30:00,55.2,50.5,28.91,NNW,345,0.0,0.0,84,0.00,,,0.00,Weather View 32 v70,2013-08-09 11:30:00,
2013-08-09 07:40:00,55.6,50.8,28.91,NNW,345,0.0,0.0,84,0.00,,,0.00,Weather View 32 v70,2013-08-09 11:40:00,
2013-08-09 07:50:00,55.9,51.5,28.91,NNW,345,0.0,0.0,85,0.00,,,0.00,Weather View 32 v70,2013-08-09 11:50:00,
2013-08-09 08:00:00,56.3,51.8,28.91,NNW,345,0.0,0.0,85,0.00,,,0.00,Weather View 32 v70,2013-08-09 12:00:00,
2013-08-09 08:10:00,56.7,52.5,28.91,NNW,345,0.0,0.0,86,0.00,,,0.00,Weather View 32 v70,2013-08-09 12:10:00,
2013-08-09 08:15:00,56.7,52.5,28.91,NNW,345,0.0,0.0,86,0.00,,,0.00,Weather View 32 v70,2013-08-09 12:15:00,
2013-08-09 08:30:00,57.9,54.1,28.91,NNW,345,0.0,0.0,87,0.00,,,0.00,Weather View 32 v70,2013-08-09 12:30:00,
2013-08-09 08:40:00,58.6,54.8,28.91,NNW,345,0.0,0.0,87,0.00,,,0.00,Weather View 32 v70,2013-08-09 12:40:00,
2013-08-09 08:50:00,59.4,55.8,28.91,NNW,345,0.0,0.0,88,0.00,,,0.00,Weather View 32 v70,2013-08-09 12:50:00,
2013-08-09 09:00:00,59.7,56.1,28.94,NNW,345,0.0,0.0,88,0.00,,,0.00,Weather View 32 v70,2013-08-09 13:00:00,
2013-08-09 09:10:00,60.6,56.1,28.94,NW,321,0.0,0.0,85,0.00,,,0.00,Weather View 32 v70,2013-08-09 13:10:00,
2013-08-09 09:16:00,60.6,56.1,28.94,NW,321,0.0,0.0,85,0.00,,,0.00,Weather View 32 v70,2013-08-09 13:16:00,
2013-08-09 09:30:00,61.9,48.7,28.91,NW,321,0.0,0.0,62,0.00,,,0.00,Weather View 32 v70,2013-08-09 13:30:00,
2013-08-09 09:39:00,63.1,49.9,28.91,NW,321,0.0,0.0,62,0.00,,,0.00,Weather View 32 v70,2013-08-09 13:39:00,
2013-08-09 09:50:00,64.2,51.3,28.91,NW,321,0.0,0.0,63,0.00,,,0.00,Weather View 32 v70,2013-08-09 13:50:00,
2013-08-09 10:00:00,65.5,44.7,28.91,NW,321,0.0,0.0,47,0.00,,,0.00,Weather View 32 v70,2013-08-09 14:00:00,
2013-08-09 10:10:00,66.9,41.7,28.91,NW,321,0.0,0.0,40,0.00,,,0.00,Weather View 32 v70,2013-08-09 14:10:00,
2013-08-09 10:17:00,66.9,41.7,28.91,NW,321,0.0,0.0,40,0.00,,,0.00,Weather View 32 v70,2013-08-09 14:17:00,
2013-08-09 10:30:00,69.6,42.8,28.91,NW,321,0.0,0.0,38,0.00,,,0.00,Weather View 32 v70,2013-08-09 14:30:00,
2013-08-09 10:40:00,71.1,42.7,28.91,SW,222,0.0,0.0,36,0.00,,,0.00,Weather View 32 v70,2013-08-09 14:40:00,
2013-08-09 10:49:00,72.5,42.5,28.91,SW,222,0.0,0.0,34,0.00,,,0.00,Weather View 32 v70,2013-08-09 14:49:00,
2013-08-09 11:00:00,73.4,42.5,28.91,SW,224,0.0,0.0,33,0.00,,,0.00,Weather View 32 v70,2013-08-09 15:00:00,
2013-08-09 11:10:00,74.8,44.5,28.91,ESE,109,0.0,0.0,34,0.00,,,0.00,Weather View 32 v70,2013-08-09 15:10:00,
2013-08-09 11:18:00,74.8,44.5,28.91,ESE,109,0.0,0.0,34,0.00,,,0.00,Weather View 32 v70,2013-08-09 15:18:00,
2013-08-09 11:30:00,76.5,42.6,28.91,ENE,64,2.0,5.0,30,0.00,,,0.00,Weather View 32 v70,2013-08-09 15:30:00,
2013-08-09 11:40:00,77.9,42.1,28.91,NNE,27,0.0,5.0,28,0.00,,,0.00,Weather View 32 v70,2013-08-09 15:40:00,
2013-08-09 11:50:00,78.1,41.3,28.91,NE,38,0.0,5.0,27,0.00,,,0.00,Weather View 32 v70,2013-08-09 15:50:00,
2013-08-09 12:00:00,78.6,44.5,28.91,NE,39,0.0,5.0,30,0.00,,,0.00,Weather View 32 v70,2013-08-09 16:00:00,
2013-08-09 12:10:00,79.7,44.5,28.91,SSW,200,0.0,5.0,29,0.00,,,0.00,Weather View 32 v70,2013-08-09 16:10:00,
2013-08-09 12:19:00,79.7,44.5,28.91,SSW,200,0.0,5.0,29,0.00,,,0.00,Weather View 32 v70,2013-08-09 16:19:00,
2013-08-09 12:30:00,80.6,45.3,28.91,SSE,147,5.0,5.0,29,0.00,,,0.00,Weather View 32 v70,2013-08-09 16:30:00,
2013-08-09 12:40:00,81.1,40.8,28.91,NE,41,0.0,5.0,24,0.00,,,0.00,Weather View 32 v70,2013-08-09 16:40:00,
2013-08-09 12:50:00,80.8,38.3,28.91,SW,219,0.0,5.0,22,0.00,,,0.00,Weather View 32 v70,2013-08-09 16:50:00,
2013-08-09 13:00:00,81.9,41.4,28.91,ESE,114,0.0,5.0,24,0.00,,,0.00,Weather View 32 v70,2013-08-09 17:00:00,
2013-08-09 13:10:00,80.2,41.1,28.91,SSW,196,0.0,5.0,25,0.00,,,0.00,Weather View 32 v70,2013-08-09 17:10:00,
2013-08-09 13:20:00,79.7,37.4,28.91,SSW,213,0.0,5.0,22,0.00,,,0.00,Weather View 32 v70,2013-08-09 17:20:00,
2013-08-09 13:30:00,80.6,38.1,28.91,SW,215,0.0,5.0,22,0.00,,,0.00,Weather View 32 v70,2013-08-09 17:30:00,
2013-08-09 13:40:00,82.0,38.1,28.91,NW,326,3.0,5.0,21,0.00,,,0.00,Weather View 32 v70,2013-08-09 17:40:00,
2013-08-09 13:50:00,81.1,42.9,28.91,SE,125,3.0,5.0,26,0.00,,,0.00,Weather View 32 v70,2013-08-09 17:50:00,
2013-08-09 14:00:00,82.0,39.3,28.91,SSW,200,4.0,5.0,22,0.00,,,0.00,Weather View 32 v70,2013-08-09 18:00:00,
2013-08-09 14:10:00,80.6,38.1,28.91,WSW,248,3.0,5.0,22,0.00,,,0.00,Weather View 32 v70,2013-08-09 18:10:00,
2013-08-09 14:21:00,80.4,39.1,28.91,SSE,166,4.0,5.0,23,0.00,,,0.00,Weather View 32 v70,2013-08-09 18:21:00,
2013-08-09 14:30:00,81.1,39.7,28.88,SSE,154,0.0,5.0,23,0.00,,,0.00,Weather View 32 v70,2013-08-09 18:30:00,
2013-08-09 14:40:00,81.0,37.2,28.88,ESE,117,3.0,5.0,21,0.00,,,0.00,Weather View 32 v70,2013-08-09 18:40:00,
2013-08-09 14:50:00,79.0,36.8,28.88,South,187,3.0,5.0,22,0.00,,,0.00,Weather View 32 v70,2013-08-09 18:50:00,
2013-08-09 15:00:00,78.6,39.8,28.88,SSW,196,0.0,5.0,25,0.00,,,0.00,Weather View 32 v70,2013-08-09 19:00:00,
2013-08-09 15:10:00,77.0,40.4,28.88,SSW,198,4.0,5.0,27,0.00,,,0.00,Weather View 32 v70,2013-08-09 19:10:00,
2013-08-09 15:20:00,77.9,43.9,28.88,WSW,250,0.0,5.0,30,0.00,,,0.00,Weather View 32 v70,2013-08-09 19:20:00,
2013-08-09 15:30:00,77.7,43.7,28.88,SSW,204,3.0,5.0,30,0.00,,,0.00,Weather View 32 v70,2013-08-09 19:30:00,
2013-08-09 15:40:00,77.4,44.3,28.88,SW,222,2.0,5.0,31,0.00,,,0.00,Weather View 32 v70,2013-08-09 19:40:00,
2013-08-09 15:50:00,77.0,43.1,28.88,SSW,195,3.0,5.0,30,0.00,,,0.00,Weather View 32 v70,2013-08-09 19:50:00,
2013-08-09 16:00:00,77.0,44.0,28.88,South,185,0.0,5.0,31,0.00,,,0.00,Weather View 32 v70,2013-08-09 20:00:00,
2013-08-09 16:10:00,77.5,45.3,28.88,South,181,3.0,5.0,32,0.00,,,0.00,Weather View 32 v70,2013-08-09 20:10:00,
2013-08-09 16:20:00,77.7,45.4,28.88,SSW,206,0.0,5.0,32,0.00,,,0.00,Weather View 32 v70,2013-08-09 20:20:00,
2013-08-09 16:30:00,76.6,42.8,28.88,South,191,0.0,5.0,30,0.00,,,0.00,Weather View 32 v70,2013-08-09 20:30:00,
2013-08-09 16:40:00,76.8,45.5,28.85,SSW,202,3.0,5.0,33,0.00,,,0.00,Weather View 32 v70,2013-08-09 20:40:00,
2013-08-09 16:50:00,77.0,44.0,28.85,SSE,160,2.0,5.0,31,0.00,,,0.00,Weather View 32 v70,2013-08-09 20:50:00,
2013-08-09 17:00:00,77.2,45.8,28.85,SSW,193,2.0,5.0,33,0.00,,,0.00,Weather View 32 v70,2013-08-09 21:00:00,
2013-08-09 17:10:00,76.8,43.8,28.88,NW,315,2.0,5.0,31,0.00,,,0.00,Weather View 32 v70,2013-08-09 21:10:00,
2013-08-09 17:20:00,76.8,44.6,28.88,WSW,243,2.0,5.0,32,0.00,,,0.00,Weather View 32 v70,2013-08-09 21:20:00,
2013-08-09 17:30:00,76.6,48.3,28.88,WSW,246,4.0,5.0,37,0.00,,,0.00,Weather View 32 v70,2013-08-09 21:30:00,
2013-08-09 17:40:00,76.6,44.5,28.88,South,184,0.0,5.0,32,0.00,,,0.00,Weather View 32 v70,2013-08-09 21:40:00,
2013-08-09 17:50:00,76.3,45.0,28.88,West,277,0.0,5.0,33,0.00,,,0.00,Weather View 32 v70,2013-08-09 21:50:00,
2013-08-09 18:00:00,75.9,45.5,28.85,NE,51,0.0,5.0,34,0.00,,,0.00,Weather View 32 v70,2013-08-09 22:00:00,
2013-08-09 18:10:00,76.1,45.6,28.85,West,279,0.0,5.0,34,0.00,,,0.00,Weather View 32 v70,2013-08-09 22:10:00,
2013-08-09 18:20:00,75.7,46.1,28.85,SSW,193,3.0,5.0,35,0.00,,,0.00,Weather View 32 v70,2013-08-09 22:20:00,
2013-08-09 18:30:00,75.6,47.4,28.88,South,177,2.0,5.0,37,0.00,,,0.00,Weather View 32 v70,2013-08-09 22:30:00,
2013-08-09 18:40:00,75.0,46.9,28.85,South,190,0.0,5.0,37,0.00,,,0.00,Weather View 32 v70,2013-08-09 22:40:00,
2013-08-09 18:50:00,74.7,46.6,28.85,SSW,196,0.0,5.0,37,0.00,,,0.00,Weather View 32 v70,2013-08-09 22:50:00,
2013-08-09 19:00:00,74.3,47.7,28.88,SSW,196,0.0,4.0,39,0.00,,,0.00,Weather View 32 v70,2013-08-09 23:00:00,
2013-08-09 19:10:00,73.9,48.0,28.85,WSW,240,0.0,4.0,40,0.00,,,0.00,Weather View 32 v70,2013-08-09 23:10:00,
2013-08-09 19:20:00,73.8,47.9,28.85,SW,221,0.0,4.0,40,0.00,,,0.00,Weather View 32 v70,2013-08-09 23:20:00,
2013-08-09 19:25:00,73.8,47.9,28.85,SW,221,0.0,4.0,40,0.00,,,0.00,Weather View 32 v70,2013-08-09 23:25:00,
2013-08-09 19:40:00,73.4,48.8,28.88,SSW,200,0.0,3.0,42,0.00,,,0.00,Weather View 32 v70,2013-08-09 23:40:00,
2013-08-09 19:50:00,73.0,48.5,28.88,SE,137,0.0,3.0,42,0.00,,,0.00,Weather View 32 v70,2013-08-09 23:50:00,
2013-08-09 20:00:00,72.5,48.7,28.85,SE,137,0.0,3.0,43,0.00,,,0.00,Weather View 32 v70,2013-08-10 00:00:00,
2013-08-09 20:10:00,72.1,49.0,28.88,SE,137,0.0,2.0,44,0.00,,,0.00,Weather View 32 v70,2013-08-10 00:10:00,
2013-08-09 20:20:00,71.8,49.2,28.88,SE,137,0.0,2.0,45,0.00,,,0.00,Weather View 32 v70,2013-08-10 00:20:00,
2013-08-09 20:26:00,71.8,49.2,28.88,SE,137,0.0,2.0,45,0.00,,,0.00,Weather View 32 v70,2013-08-10 00:26:00,
2013-08-09 20:40:00,70.7,50.5,28.88,SE,137,0.0,0.0,49,0.00,,,0.00,Weather View 32 v70,2013-08-10 00:40:00,
2013-08-09 20:50:00,70.3,49.7,28.88,SE,137,0.0,0.0,48,0.00,,,0.00,Weather View 32 v70,2013-08-10 00:50:00,
2013-08-09 21:00:00,70.3,49.7,28.88,SE,137,0.0,0.0,48,0.00,,,0.00,Weather View 32 v70,2013-08-10 01:00:00,
2013-08-09 21:10:00,70.0,49.3,28.88,WNW,300,0.0,0.0,48,0.00,,,0.00,Weather View 32 v70,2013-08-10 01:10:00,
2013-08-09 21:20:00,69.4,49.4,28.88,West,260,0.0,0.0,49,0.00,,,0.00,Weather View 32 v70,2013-08-10 01:20:00,
2013-08-09 21:27:00,69.4,49.4,28.88,West,260,0.0,0.0,49,0.00,,,0.00,Weather View 32 v70,2013-08-10 01:27:00,
2013-08-09 21:40:00,68.2,50.9,28.91,West,260,0.0,0.0,54,0.00,,,0.00,Weather View 32 v70,2013-08-10 01:40:00,
2013-08-09 21:50:00,67.6,51.8,28.91,WNW,289,0.0,0.0,57,0.00,,,0.00,Weather View 32 v70,2013-08-10 01:50:00,
2013-08-09 21:59:00,67.1,52.3,28.91,WNW,289,0.0,0.0,59,0.00,,,0.00,Weather View 32 v70,2013-08-10 01:59:00,
2013-08-09 22:10:00,66.9,53.0,28.91,WNW,301,0.0,0.0,61,0.00,,,0.00,Weather View 32 v70,2013-08-10 02:10:00,
2013-08-09 22:20:00,67.5,52.6,28.91,North,353,0.0,0.0,59,0.00,,,0.00,Weather View 32 v70,2013-08-10 02:20:00,
2013-08-09 22:28:00,67.5,52.6,28.91,North,353,0.0,0.0,59,0.00,,,0.00,Weather View 32 v70,2013-08-10 02:28:00,
2013-08-09 22:40:00,67.3,51.5,28.91,North,353,0.0,0.0,57,0.00,,,0.00,Weather View 32 v70,2013-08-10 02:40:00,
2013-08-09 22:50:00,67.3,51.5,28.91,North,353,0.0,0.0,57,0.00,,,0.00,Weather View 32 v70,2013-08-10 02:50:00,
2013-08-09 23:00:00,66.9,51.1,28.91,North,353,0.0,0.0,57,0.00,,,0.00,Weather View 32 v70,2013-08-10 03:00:00,
2013-08-09 23:09:00,66.9,51.1,28.91,NE,38,0.0,0.0,57,0.00,,,0.00,Weather View 32 v70,2013-08-10 03:09:00,
2013-08-09 23:20:00,66.9,51.1,28.91,NE,38,0.0,0.0,57,0.00,,,0.00,Weather View 32 v70,2013-08-10 03:20:00,
2013-08-09 23:29:00,66.9,51.1,28.91,NE,38,0.0,0.0,57,0.00,,,0.00,Weather View 32 v70,2013-08-10 03:29:00,
2013-08-09 23:40:00,66.6,51.7,28.94,NE,38,0.0,0.0,59,0.00,,,0.00,Weather View 32 v70,2013-08-10 03:40:00,
2013-08-09 23:50:00,66.4,51.6,28.94,NE,38,0.0,0.0,59,0.00,,,0.00,Weather View 32 v70,2013-08-10 03:50:00,